Location: Peterborough
(44.3091°N, 78.3197°W)
Time: 19:52:24
(UTC-04:00)

A-11 Canister half - Pass Details

Date: 28 March 2023
Orbit: 1526 x 1682 km, 47.3° (Epoch: 06 June)

Event Time Altitude Azimuth Distance (km) Brightness Sun altitude
Rises 00:04:22 0° 294° (WNW) 4,827 12.1 -40.0°
Reaches altitude 10° 00:08:00 10° 284° (WNW) 3,814 11.4 -40.2°
Enters shadow 00:13:14 26° 254° (WSW) 2,723 10.2 -40.6°
